| time (UTC) | temp C | wind direction | speed KPH | gust KPH | rain 1hr cm | rain 24hr cm | rain mn cm | humidity % | barometer mb |
| 20260506062305 | 11 | 299 | 0.0 | 4.8 | 0.00 | 0.00 | 0.00 | 84 | 1009.4 |
| 20260506061802 | 11 | 302 | 0.0 | 4.8 | 0.00 | 0.00 | 0.00 | 84 | 1009.3 |
| 20260506061307 | 11 | 263 | 0.0 | 6.4 | 0.00 | 0.00 | 0.00 | 84 | 1009.3 |
| 20260506060802 | 11 | 305 | 0.0 | 6.4 | 0.00 | 0.00 | 0.00 | 84 | 1009.3 |
| 20260506060301 | 11 | 301 | 0.0 | 4.8 | 0.00 | 0.00 | 0.00 | 85 | 1009.2 |
| 20260506051242 | 11 | 301 | 0.0 | 4.8 | 0.00 | 0.00 | 0.00 | 86 | 1009.1 |
| 20260506050750 | 11 | 285 | 0.0 | 1.6 | 0.00 | 0.00 | 0.00 | 86 | 1009.1 |
| 20260506050240 | 11 | 278 | 0.0 | 3.2 | 0.00 | 0.00 | 0.00 | 86 | 1009.0 |
| 20260506044739 | 10 | 297 | 0.0 | 4.8 | 0.00 | 0.00 | 0.00 | 85 | 1009.2 |
| 20260506044236 | 10 | 293 | 0.0 | 6.4 | 0.00 | 0.00 | 0.00 | 84 | 1009.1 |
| 20260506043739 | 10 | 289 | 0.0 | 6.4 | 0.00 | 0.00 | 0.00 | 85 | 1009.3 |
| 20260506043236 | 10 | 308 | 1.6 | 6.4 | 0.00 | 0.00 | 0.00 | 85 | 1009.3 |
| 20260506042738 | 10 | 310 | 1.6 | 6.4 | 0.00 | 0.00 | 0.00 | 85 | 1009.3 |
| 20260506042237 | 10 | 262 | 0.0 | 4.8 | 0.00 | 0.00 | 0.00 | 85 | 1009.3 |
| 20260506041750 | 10 | 300 | 0.0 | 3.2 | 0.00 | 0.00 | 0.00 | 85 | 1009.3 |
| 20260506041235 | 10 | 291 | 0.0 | 3.2 | 0.00 | 0.00 | 0.00 | 85 | 1009.3 |
| 20260506041017 | 10 | 284 | 0.0 | 3.2 | 0.00 | 0.00 | 0.00 | 85 | 1009.3 |
| 20260506040230 | 10 | 298 | 0.0 | 3.2 | 0.00 | 0.00 | 0.00 | 84 | 1009.3 |
| 20260506035723 | 10 | 293 | 0.0 | 3.2 | 0.00 | 0.00 | 0.00 | 85 | 1009.3 |
| 20260506035220 | 10 | 316 | 0.0 | 3.2 | 0.00 | 0.00 | 0.00 | 84 | 1009.3 |
| 20260506034712 | 10 | 85 | 0.0 | 3.2 | 0.00 | 0.00 | 0.00 | 84 | 1009.4 |
| 20260506034207 | 10 | 86 | 0.0 | 4.8 | 0.00 | 0.00 | 0.00 | 84 | 1009.4 |
| 20260506033712 | 10 | 317 | 0.0 | 4.8 | 0.00 | 0.00 | 0.00 | 84 | 1009.4 |
| 20260506033213 | 10 | 297 | 0.0 | 3.2 | 0.00 | 0.00 | 0.00 | 84 | 1009.4 |
| 20260506032945 | 10 | 280 | 0.0 | 4.8 | 0.00 | 0.00 | 0.00 | 84 | 1009.5 |
| 20260506032210 | 10 | 320 | 0.0 | 4.8 | 0.00 | 0.00 | 0.00 | 84 | 1009.5 |
| 20260506031708 | 10 | 303 | 0.0 | 4.8 | 0.00 | 0.00 | 0.00 | 84 | 1009.6 |
| 20260506031204 | 10 | 299 | 0.0 | 4.8 | 0.00 | 0.00 | 0.00 | 84 | 1009.6 |
| 20260506030748 | 10 | 324 | 0.0 | 4.8 | 0.00 | 0.00 | 0.00 | 84 | 1009.7 |
| 20260506030730 | 10 | 296 | 0.0 | 4.8 | 0.00 | 0.00 | 0.00 | 84 | 1009.6 |
| 20260506025703 | 10 | 320 | 0.0 | 1.6 | 0.00 | 0.00 | 0.00 | 84 | 1009.8 |
| 20260506025202 | 10 | 291 | 0.0 | 3.2 | 0.00 | 0.00 | 0.00 | 84 | 1009.8 |
| 20260506024702 | 10 | 306 | 0.0 | 3.2 | 0.00 | 0.00 | 0.00 | 83 | 1009.8 |
| 20260506024457 | 10 | 306 | 0.0 | 3.2 | 0.00 | 0.00 | 0.00 | 83 | 1009.8 |
| 20260506023703 | 10 | 256 | 0.0 | 4.8 | 0.00 | 0.00 | 0.00 | 83 | 1009.9 |
| 20260506023158 | 10 | 260 | 0.0 | 4.8 | 0.00 | 0.00 | 0.00 | 83 | 1010.0 |
| 20260506022656 | 10 | 303 | 0.0 | 3.2 | 0.00 | 0.00 | 0.00 | 83 | 1009.9 |
| 20260506022155 | 10 | 296 | 0.0 | 1.6 | 0.00 | 0.00 | 0.00 | 83 | 1009.8 |
| 20260506021654 | 10 | 289 | 0.0 | 3.2 | 0.00 | 0.00 | 0.00 | 82 | 1009.8 |
| 20260506021152 | 10 | 303 | 0.0 | 3.2 | 0.00 | 0.00 | 0.00 | 82 | 1009.9 |
| 20260506020649 | 10 | 312 | 0.0 | 3.2 | 0.00 | 0.00 | 0.00 | 82 | 1009.9 |
| 20260506020149 | 10 | 24 | 0.0 | 3.2 | 0.00 | 0.00 | 0.00 | 82 | 1009.9 |
| 20260506015658 | 10 | 308 | 0.0 | 3.2 | 0.00 | 0.00 | 0.00 | 81 | 1009.9 |
| 20260506015146 | 10 | 303 | 0.0 | 3.2 | 0.00 | 0.00 | 0.00 | 81 | 1010.0 |
| 20260506014648 | 10 | 313 | 0.0 | 3.2 | 0.00 | 0.00 | 0.00 | 81 | 1010.0 |
| 20260506014515 | 10 | 334 | 0.0 | 3.2 | 0.00 | 0.00 | 0.00 | 81 | 1010.0 |
| 20260506013644 | 10 | 310 | 0.0 | 3.2 | 0.00 | 0.00 | 0.00 | 80 | 1010.0 |
| 20260506013145 | 10 | 316 | 0.0 | 3.2 | 0.00 | 0.00 | 0.00 | 80 | 1010.1 |
| 20260506012644 | 11 | 72 | 0.0 | 4.8 | 0.00 | 0.00 | 0.00 | 80 | 1010.0 |
| 20260506012144 | 10 | 224 | 0.0 | 4.8 | 0.00 | 0.00 | 0.00 | 80 | 1010.1 |
| 20260506011946 | 10 | 308 | 0.0 | 4.8 | 0.00 | 0.00 | 0.00 | 80 | 1010.1 |
| 20260506011146 | 10 | 316 | 0.0 | 4.8 | 0.00 | 0.00 | 0.00 | 79 | 1010.1 |
| 20260506010642 | 10 | 313 | 0.0 | 4.8 | 0.00 | 0.00 | 0.00 | 79 | 1010.2 |
| 20260506010144 | 10 | 349 | 1.6 | 6.4 | 0.00 | 0.00 | 0.00 | 79 | 1010.2 |
| 20260506005643 | 10 | 301 | 1.6 | 6.4 | 0.00 | 0.00 | 0.00 | 79 | 1010.2 |
| 20260506005143 | 10 | 103 | 1.6 | 9.7 | 0.00 | 0.00 | 0.00 | 79 | 1010.3 |
| 20260506004640 | 10 | 268 | 1.6 | 9.7 | 0.00 | 0.00 | 0.00 | 79 | 1010.4 |
| 20260506004140 | 10 | 308 | 0.0 | 4.8 | 0.00 | 0.00 | 0.00 | 79 | 1010.4 |
| 20260506003640 | 10 | 295 | 0.0 | 6.4 | 0.00 | 0.00 | 0.00 | 79 | 1010.5 |
| 20260506003141 | 10 | 289 | 0.0 | 6.4 | 0.00 | 0.00 | 0.00 | 79 | 1010.6 |
| 20260506002937 | 10 | 296 | 0.0 | 4.8 | 0.00 | 0.00 | 0.00 | 79 | 1010.5 |
| 20260506002140 | 10 | 294 | 1.6 | 9.7 | 0.00 | 0.00 | 0.00 | 79 | 1010.5 |
| 20260506001931 | 10 | 297 | 1.6 | 9.7 | 0.00 | 0.00 | 0.00 | 79 | 1010.5 |
| 20260506001142 | 10 | 304 | 1.6 | 9.7 | 0.00 | 0.00 | 0.00 | 80 | 1010.6 |
| 20260506000642 | 10 | 312 | 0.0 | 4.8 | 0.00 | 0.00 | 0.00 | 81 | 1010.5 |
| 20260506000140 | 10 | 301 | 0.0 | 4.8 | 0.00 | 0.00 | 0.00 | 81 | 1010.5 |
| 20260505235640 | 10 | 323 | 0.0 | 4.8 | 0.00 | 0.00 | 0.00 | 81 | 1010.6 |
| 20260505235141 | 10 | 304 | 0.0 | 3.2 | 0.00 | 0.00 | 0.00 | 81 | 1010.6 |
| 20260505234650 | 10 | 306 | 0.0 | 4.8 | 0.00 | 0.00 | 0.00 | 81 | 1010.6 |
| 20260505234138 | 10 | 317 | 0.0 | 4.8 | 0.00 | 0.00 | 0.00 | 81 | 1010.8 |
| 20260505233640 | 10 | 287 | 0.0 | 3.2 | 0.00 | 0.00 | 0.00 | 81 | 1010.8 |
| 20260505233138 | 10 | 300 | 0.0 | 3.2 | 0.00 | 0.00 | 0.00 | 81 | 1010.8 |
| 20260505232919 | 10 | 298 | 0.0 | 3.2 | 0.00 | 0.00 | 0.00 | 81 | 1010.9 |
| 20260505232133 | 10 | 312 | 0.0 | 4.8 | 0.00 | 0.00 | 0.00 | 81 | 1010.9 |
| 20260505231630 | 10 | 308 | 1.6 | 4.8 | 0.00 | 0.00 | 0.00 | 81 | 1011.0 |
| 20260505231537 | 10 | 310 | 0.0 | 6.4 | 0.00 | 0.00 | 0.00 | 82 | 1011.0 |
| 20260505231204 | 10 | 304 | 0.0 | 6.4 | 0.00 | 0.00 | 0.00 | 81 | 1011.0 |
| 20260505230112 | 10 | 286 | 0.0 | 6.4 | 0.00 | 0.00 | 0.00 | 82 | 1011.0 |
| 20260505225618 | 10 | 303 | 0.0 | 3.2 | 0.00 | 0.00 | 0.00 | 82 | 1011.1 |
| 20260505225114 | 10 | 299 | 0.0 | 3.2 | 0.00 | 0.00 | 0.00 | 82 | 1011.1 |
| 20260505224613 | 10 | 305 | 0.0 | 3.2 | 0.00 | 0.00 | 0.00 | 82 | 1011.2 |
| 20260505224107 | 10 | 275 | 0.0 | 3.2 | 0.00 | 0.00 | 0.00 | 82 | 1011.1 |
| 20260505223607 | 10 | 309 | 0.0 | 3.2 | 0.00 | 0.00 | 0.00 | 82 | 1011.1 |
| 20260505223106 | 10 | 340 | 0.0 | 3.2 | 0.00 | 0.00 | 0.00 | 82 | 1011.2 |
| 20260505222853 | 10 | 316 | 0.0 | 3.2 | 0.00 | 0.00 | 0.00 | 82 | 1011.3 |
| 20260505222105 | 10 | 7 | 0.0 | 1.6 | 0.00 | 0.00 | 0.00 | 82 | 1011.2 |
| 20260505221605 | 10 | 316 | 0.0 | 4.8 | 0.00 | 0.00 | 0.00 | 82 | 1011.2 |
| 20260505221103 | 10 | 105 | 0.0 | 4.8 | 0.00 | 0.00 | 0.00 | 82 | 1011.5 |
| 20260505220604 | 10 | 306 | 0.0 | 4.8 | 0.00 | 0.00 | 0.00 | 82 | 1011.4 |
| 20260505220104 | 10 | 91 | 0.0 | 4.8 | 0.00 | 0.00 | 0.00 | 83 | 1011.4 |
| 20260505215602 | 10 | 303 | 0.0 | 3.2 | 0.00 | 0.00 | 0.00 | 83 | 1011.4 |
| 20260505215103 | 10 | 288 | 0.0 | 4.8 | 0.00 | 0.00 | 0.00 | 82 | 1011.5 |
| 20260505214602 | 10 | 306 | 0.0 | 4.8 | 0.00 | 0.00 | 0.00 | 82 | 1011.5 |
| 20260505214109 | 10 | 314 | 0.0 | 1.6 | 0.00 | 0.00 | 0.00 | 82 | 1011.6 |
| 20260505213601 | 10 | 305 | 0.0 | 3.2 | 0.00 | 0.00 | 0.00 | 81 | 1011.5 |
| 20260505213101 | 10 | 291 | 0.0 | 3.2 | 0.00 | 0.00 | 0.00 | 81 | 1011.5 |
| 20260505212556 | 10 | 60 | 0.0 | 3.2 | 0.00 | 0.00 | 0.00 | 80 | 1011.5 |
| 20260505212052 | 10 | 288 | 0.0 | 4.8 | 0.00 | 0.00 | 0.00 | 80 | 1011.5 |
| 20260505211544 | 10 | 318 | 0.0 | 4.8 | 0.00 | 0.00 | 0.00 | 79 | 1011.5 |
| 20260505211037 | 11 | 308 | 0.0 | 4.8 | 0.00 | 0.00 | 0.00 | 79 | 1011.6 |
| 20260505210533 | 11 | 6 | 0.0 | 8.0 | 0.00 | 0.00 | 0.00 | 78 | 1011.6 |
| 20260505210030 | 11 | 73 | 1.6 | 11.3 | 0.00 | 0.00 | 0.00 | 78 | 1011.6 |
| 20260505205532 | 11 | 315 | 0.0 | 11.3 | 0.00 | 0.00 | 0.00 | 77 | 1011.7 |
| 20260505205030 | 11 | 319 | 0.0 | 4.8 | 0.00 | 0.00 | 0.00 | 77 | 1011.7 |
| 20260505204530 | 11 | 317 | 1.6 | 4.8 | 0.00 | 0.00 | 0.00 | 76 | 1011.7 |
| 20260505204328 | 11 | 317 | 1.6 | 4.8 | 0.00 | 0.00 | 0.00 | 75 | 1011.8 |
| 20260505203828 | 11 | 295 | 0.0 | 4.8 | 0.00 | 0.00 | 0.00 | 75 | 1011.8 |
| 20260505203337 | 11 | 337 | 0.0 | 3.2 | 0.00 | 0.00 | 0.00 | 74 | 1011.8 |
| 20260505202532 | 11 | 308 | 0.0 | 3.2 | 0.00 | 0.00 | 0.00 | 74 | 1011.7 |
| 20260505202030 | 11 | 312 | 0.0 | 4.8 | 0.00 | 0.00 | 0.00 | 74 | 1011.8 |
| 20260505201918 | 11 | 322 | 1.6 | 8.0 | 0.00 | 0.00 | 0.00 | 74 | 1011.8 |
| 20260505201914 | 11 | 273 | 1.6 | 8.0 | 0.00 | 0.00 | 0.00 | 74 | 1011.8 |
| 20260505200536 | 11 | 287 | 0.0 | 4.8 | 0.00 | 0.00 | 0.00 | 74 | 1011.7 |
| 20260505200031 | 11 | 306 | 0.0 | 4.8 | 0.00 | 0.00 | 0.00 | 74 | 1011.7 |
| 20260505195823 | 11 | 290 | 1.6 | 4.8 | 0.00 | 0.00 | 0.00 | 74 | 1011.7 |
| 20260505195030 | 11 | 310 | 1.6 | 6.4 | 0.00 | 0.00 | 0.00 | 74 | 1011.6 |
| 20260505194819 | 11 | 82 | 1.6 | 6.4 | 0.00 | 0.00 | 0.00 | 74 | 1011.5 |
| 20260505194032 | 11 | 299 | 1.6 | 4.8 | 0.00 | 0.00 | 0.00 | 74 | 1011.6 |
| 20260505193527 | 11 | 285 | 1.6 | 4.8 | 0.00 | 0.00 | 0.00 | 74 | 1011.4 |
| 20260505193024 | 11 | 324 | 1.6 | 3.2 | 0.00 | 0.00 | 0.00 | 74 | 1011.4 |
| 20260505192522 | 11 | 307 | 1.6 | 4.8 | 0.00 | 0.00 | 0.00 | 74 | 1011.3 |
| 20260505192305 | 11 | 318 | 1.6 | 4.8 | 0.00 | 0.00 | 0.00 | 74 | 1011.2 |
| 20260505191518 | 11 | 306 | 1.6 | 4.8 | 0.00 | 0.00 | 0.00 | 74 | 1011.2 |
| 20260505191019 | 11 | 322 | 1.6 | 4.8 | 0.00 | 0.00 | 0.00 | 74 | 1011.0 |
| 20260505190520 | 11 | 307 | 1.6 | 4.8 | 0.00 | 0.00 | 0.00 | 74 | 1011.1 |
| 20260505190306 | 11 | 144 | 0.0 | 4.8 | 0.00 | 0.00 | 0.00 | 75 | 1011.0 |
| 20260505185519 | 11 | 231 | 1.6 | 4.8 | 0.00 | 0.00 | 0.00 | 75 | 1011.0 |
| 20260505185018 | 11 | 287 | 1.6 | 6.4 | 0.00 | 0.00 | 0.00 | 75 | 1011.1 |
| 20260505184522 | 11 | 320 | 1.6 | 6.4 | 0.00 | 0.00 | 0.00 | 75 | 1011.0 |
| 20260505184018 | 11 | 312 | 1.6 | 6.4 | 0.00 | 0.00 | 0.00 | 75 | 1011.0 |
| 20260505183804 | 12 | 347 | 0.0 | 4.8 | 0.00 | 0.00 | 0.00 | 75 | 1011.0 |
| 20260505183016 | 12 | 298 | 1.6 | 4.8 | 0.00 | 0.00 | 0.00 | 75 | 1011.0 |
| 20260505182518 | 12 | 247 | 1.6 | 4.8 | 0.00 | 0.00 | 0.00 | 75 | 1011.0 |
| 20260505182017 | 12 | 299 | 1.6 | 4.8 | 0.00 | 0.00 | 0.00 | 75 | 1011.0 |
| 20260505181514 | 12 | 285 | 1.6 | 6.4 | 0.00 | 0.00 | 0.00 | 75 | 1011.1 |
| 20260505181322 | 12 | 314 | 1.6 | 6.4 | 0.00 | 0.00 | 0.00 | 75 | 1011.1 |
| 20260505180755 | 12 | 292 | 1.6 | 6.4 | 0.00 | 0.00 | 0.00 | 74 | 1011.1 |
| 20260505180013 | 12 | 276 | 1.6 | 4.8 | 0.00 | 0.00 | 0.00 | 74 | 1011.1 |
| 20260505175512 | 12 | 293 | 1.6 | 6.4 | 0.00 | 0.00 | 0.00 | 74 | 1011.1 |
| 20260505175257 | 12 | 303 | 1.6 | 6.4 | 0.00 | 0.00 | 0.00 | 74 | 1011.1 |
| 20260505174809 | 12 | 312 | 1.6 | 6.4 | 0.00 | 0.00 | 0.00 | 74 | 1011.2 |
| 20260505174011 | 12 | 310 | 1.6 | 9.7 | 0.00 | 0.00 | 0.00 | 74 | 1011.2 |
| 20260505173510 | 12 | 201 | 1.6 | 9.7 | 0.00 | 0.00 | 0.00 | 74 | 1011.2 |
| 20260505173256 | 13 | 280 | 1.6 | 6.4 | 0.00 | 0.00 | 0.00 | 73 | 1011.2 |
| 20260505172907 | 13 | 330 | 1.6 | 6.4 | 0.00 | 0.00 | 0.00 | 73 | 1011.3 |
| 20260505172545 | 13 | 266 | 1.6 | 6.4 | 0.00 | 0.00 | 0.00 | 73 | 1011.3 |
| 20260505171510 | 13 | 300 | 1.6 | 11.3 | 0.00 | 0.00 | 0.00 | 72 | 1011.3 |
| 20260505171008 | 13 | 327 | 0.0 | 11.3 | 0.00 | 0.00 | 0.00 | 72 | 1011.2 |
| 20260505170508 | 13 | 73 | 1.6 | 6.4 | 0.00 | 0.00 | 0.00 | 72 | 1011.2 |
| 20260505170008 | 13 | 288 | 1.6 | 9.7 | 0.00 | 0.00 | 0.00 | 71 | 1011.2 |
| 20260505165512 | 13 | 310 | 1.6 | 9.7 | 0.00 | 0.00 | 0.00 | 71 | 1011.1 |
| 20260505165247 | 13 | 284 | 3.2 | 9.7 | 0.00 | 0.00 | 0.00 | 71 | 1011.3 |
| 20260505164508 | 13 | 302 | 3.2 | 9.7 | 0.00 | 0.00 | 0.00 | 72 | 1011.3 |
| 20260505164013 | 13 | 309 | 1.6 | 6.4 | 0.00 | 0.00 | 0.00 | 73 | 1011.2 |
| 20260505163506 | 13 | 307 | 1.6 | 9.7 | 0.00 | 0.00 | 0.00 | 72 | 1011.2 |
| 20260505163145 | 13 | 273 | 3.2 | 9.7 | 0.00 | 0.00 | 0.00 | 72 | 1011.3 |
| 20260505163141 | 13 | 239 | 1.6 | 9.7 | 0.00 | 0.00 | 0.00 | 71 | 1011.3 |
| 20260505163119 | 13 | 291 | 1.6 | 9.7 | 0.00 | 0.00 | 0.00 | 72 | 1011.3 |
| 20260505161504 | 13 | 306 | 1.6 | 6.4 | 0.00 | 0.00 | 0.00 | 72 | 1011.2 |
| 20260505161006 | 13 | 276 | 1.6 | 6.4 | 0.00 | 0.00 | 0.00 | 72 | 1011.2 |
| 20260505160504 | 13 | 33 | 3.2 | 6.4 | 0.00 | 0.00 | 0.00 | 72 | 1011.3 |
| 20260505153007 | 15 | 310 | 3.2 | 14.5 | 0.00 | 0.00 | 0.00 | 68 | 1011.4 |
| 20260505152506 | 15 | 297 | 1.6 | 16.1 | 0.00 | 0.00 | 0.00 | 67 | 1011.4 |
| 20260505152004 | 15 | 293 | 1.6 | 16.1 | 0.00 | 0.00 | 0.00 | 67 | 1011.4 |
| 20260505151504 | 15 | 298 | 1.6 | 11.3 | 0.00 | 0.00 | 0.00 | 68 | 1011.4 |
| 20260505151004 | 15 | 287 | 1.6 | 9.7 | 0.00 | 0.00 | 0.00 | 68 | 1011.4 |
| 20260505150504 | 14 | 313 | 3.2 | 11.3 | 0.00 | 0.00 | 0.00 | 68 | 1011.3 |
| 20260505140503 | 15 | 291 | 3.2 | 9.7 | 0.00 | 0.00 | 0.00 | 67 | 1011.7 |
| 20260505124941 | 14 | 103 | 1.6 | 9.7 | 0.00 | 0.00 | 0.00 | 69 | 1012.1 |
| 20260505124444 | 14 | 300 | 1.6 | 9.7 | 0.00 | 0.00 | 0.00 | 69 | 1012.1 |
| 20260505124235 | 14 | 296 | 1.6 | 8.0 | 0.00 | 0.00 | 0.00 | 69 | 1012.1 |
| 20260505123439 | 14 | 276 | 1.6 | 9.7 | 0.00 | 0.00 | 0.00 | 69 | 1012.0 |
| 20260505122943 | 14 | 20 | 3.2 | 9.7 | 0.00 | 0.00 | 0.00 | 69 | 1012.0 |
| 20260505122440 | 14 | 304 | 1.6 | 9.7 | 0.00 | 0.00 | 0.00 | 70 | 1012.1 |
| 20260505121940 | 14 | 276 | 1.6 | 9.7 | 0.00 | 0.00 | 0.00 | 70 | 1012.3 |
| 20260505121440 | 14 | 95 | 1.6 | 6.4 | 0.00 | 0.00 | 0.00 | 71 | 1012.3 |
| 20260505120941 | 14 | 20 | 1.6 | 6.4 | 0.00 | 0.00 | 0.00 | 70 | 1012.4 |
| 20260505120442 | 14 | 297 | 1.6 | 11.3 | 0.00 | 0.00 | 0.00 | 71 | 1012.2 |
| 20260505115935 | 14 | 295 | 3.2 | 11.3 | 0.00 | 0.00 | 0.00 | 71 | 1012.3 |
| 20260505115747 | 14 | 314 | 1.6 | 11.3 | 0.00 | 0.00 | 0.00 | 71 | 1012.2 |
| 20260505114935 | 14 | 296 | 3.2 | 12.9 | 0.00 | 0.00 | 0.00 | 72 | 1012.3 |
| 20260505114434 | 13 | 292 | 3.2 | 12.9 | 0.00 | 0.00 | 0.00 | 71 | 1012.2 |
| 20260505113933 | 14 | 291 | 1.6 | 9.7 | 0.00 | 0.00 | 0.00 | 71 | 1012.2 |
| 20260505113434 | 13 | 314 | 1.6 | 6.4 | 0.00 | 0.00 | 0.00 | 71 | 1012.3 |
| 20260505112934 | 13 | 276 | 1.6 | 6.4 | 0.00 | 0.00 | 0.00 | 71 | 1012.3 |
| 20260505112435 | 13 | 316 | 1.6 | 9.7 | 0.00 | 0.00 | 0.00 | 72 | 1012.3 |
| 20260505111933 | 13 | 284 | 0.0 | 9.7 | 0.00 | 0.00 | 0.00 | 72 | 1012.4 |
| 20260505111431 | 13 | 320 | 0.0 | 1.6 | 0.00 | 0.00 | 0.00 | 73 | 1012.5 |
| 20260505110931 | 13 | 289 | 0.0 | 0.0 | 0.00 | 0.00 | 0.00 | 75 | 1012.4 |
| 20260505110434 | 13 | 281 | 0.0 | 3.2 | 0.00 | 0.00 | 0.00 | 76 | 1012.4 |
| 20260505101923 | 12 | 298 | 0.0 | 4.8 | 0.00 | 0.00 | 0.00 | 79 | 1013.0 |
| 20260505101422 | 11 | 304 | 0.0 | 3.2 | 0.00 | 0.00 | 0.00 | 80 | 1012.9 |
| 20260505100919 | 11 | 313 | 0.0 | 3.2 | 0.00 | 0.00 | 0.00 | 80 | 1012.9 |
| 20260505100419 | 11 | 81 | 0.0 | 4.8 | 0.00 | 0.00 | 0.00 | 80 | 1012.9 |
| 20260505100231 | 11 | 303 | 0.0 | 4.8 | 0.00 | 0.00 | 0.00 | 80 | 1012.8 |
| 20260505095419 | 11 | 79 | 0.0 | 4.8 | 0.00 | 0.00 | 0.00 | 81 | 1012.8 |
| 20260505094922 | 11 | 62 | 0.0 | 4.8 | 0.00 | 0.00 | 0.00 | 81 | 1012.9 |
| 20260505094759 | 11 | 1 | 0.0 | 6.4 | 0.00 | 0.00 | 0.00 | 82 | 1012.9 |
| 20260505094420 | 11 | 291 | 0.0 | 6.4 | 0.00 | 0.00 | 0.00 | 81 | 1013.0 |
| 20260505093709 | 11 | 301 | 0.0 | 3.2 | 0.00 | 0.00 | 0.00 | 82 | 1012.9 |
| 20260505092917 | 11 | 26 | 0.0 | 6.4 | 0.00 | 0.00 | 0.00 | 83 | 1013.0 |
| 20260505092418 | 11 | 58 | 0.0 | 6.4 | 0.00 | 0.00 | 0.00 | 83 | 1012.9 |
| 20260505091913 | 11 | 293 | 0.0 | 6.4 | 0.00 | 0.00 | 0.00 | 83 | 1012.9 |
| 20260505091405 | 11 | 322 | 0.0 | 6.4 | 0.00 | 0.00 | 0.00 | 83 | 1012.9 |
| 20260505090912 | 11 | 62 | 0.0 | 3.2 | 0.00 | 0.00 | 0.00 | 84 | 1012.9 |
| 20260505090405 | 11 | 106 | 0.0 | 3.2 | 0.00 | 0.00 | 0.00 | 85 | 1012.9 |
| 20260505085905 | 10 | 316 | 0.0 | 4.8 | 0.00 | 0.00 | 0.00 | 86 | 1012.8 |
| 20260505085403 | 10 | 76 | 0.0 | 6.4 | 0.00 | 0.00 | 0.00 | 87 | 1012.8 |
| 20260505084903 | 10 | 83 | 0.0 | 8.0 | 0.00 | 0.00 | 0.00 | 87 | 1012.7 |
| 20260505084403 | 10 | 67 | 0.0 | 8.0 | 0.00 | 0.00 | 0.00 | 87 | 1012.7 |
| 20260505083917 | 10 | 51 | 0.0 | 4.8 | 0.00 | 0.00 | 0.00 | 88 | 1012.7 |
| 20260505083403 | 10 | 304 | 0.0 | 4.8 | 0.00 | 0.00 | 0.00 | 88 | 1012.8 |
| 20260505082908 | 10 | 313 | 0.0 | 3.2 | 0.00 | 0.00 | 0.00 | 89 | 1012.8 |
| 20260505082627 | 10 | 326 | 0.0 | 3.2 | 0.00 | 0.00 | 0.00 | 89 | 1012.9 |
| 20260505081903 | 10 | 68 | 0.0 | 3.2 | 0.00 | 0.00 | 0.00 | 89 | 1013.0 |
| 20260505081403 | 10 | 330 | 0.0 | 6.4 | 0.00 | 0.00 | 0.00 | 90 | 1013.0 |
| 20260505080902 | 10 | 114 | 0.0 | 6.4 | 0.00 | 0.00 | 0.00 | 90 | 1013.0 |
| 20260505080402 | 10 | 305 | 0.0 | 3.2 | 0.00 | 0.00 | 0.00 | 90 | 1012.9 |
| 20260505075903 | 10 | 300 | 0.0 | 3.2 | 0.00 | 0.00 | 0.00 | 91 | 1013.0 |
| 20260505075417 | 10 | 311 | 0.0 | 3.2 | 0.00 | 0.00 | 0.00 | 91 | 1013.0 |
| 20260505075205 | 9 | 348 | 0.0 | 3.2 | 0.00 | 0.00 | 0.00 | 91 | 1013.0 |
| 20260505074404 | 9 | 291 | 0.0 | 3.2 | 0.00 | 0.00 | 0.00 | 91 | 1013.1 |
| 20260505073901 | 9 | 288 | 0.0 | 3.2 | 0.00 | 0.00 | 0.00 | 92 | 1013.2 |
| 20260505073651 | 9 | 69 | 0.0 | 3.2 | 0.00 | 0.00 | 0.00 | 92 | 1013.1 |
| 20260505072857 | 9 | 45 | 0.0 | 4.8 | 0.00 | 0.00 | 0.00 | 92 | 1013.1 |
| 20260505072356 | 9 | 101 | 0.0 | 4.8 | 0.00 | 0.00 | 0.00 | 92 | 1013.1 |
| 20260505071854 | 9 | 89 | 0.0 | 4.8 | 0.00 | 0.00 | 0.00 | 92 | 1013.2 |
| 20260505071355 | 9 | 64 | 0.0 | 4.8 | 0.00 | 0.00 | 0.00 | 92 | 1013.1 |
| 20260505070854 | 9 | 68 | 0.0 | 4.8 | 0.00 | 0.00 | 0.00 | 92 | 1013.2 |
| 20260505070702 | 9 | 276 | 0.0 | 3.2 | 0.00 | 0.00 | 0.00 | 92 | 1013.2 |